TimeAKST,TemperatureF,Dew PointF,Humidity,Sea Level PressureIn,VisibilityMPH,Wind Direction,Wind SpeedMPH,Gust SpeedMPH,PrecipitationIn,Events,Conditions,WindDirDegrees,DateUTC
12:53 AM,-25.1,-29.9,78,29.99,10.0,South,3.5,-,N/A,,Scattered Clouds,170,2012-12-19 09:53:00
1:53 AM,-25.1,-29.9,78,30.02,10.0,Calm,Calm,-,N/A,,Partly Cloudy,0,2012-12-19 10:53:00
2:53 AM,-26.0,-32.1,73,30.05,10.0,Calm,Calm,-,N/A,,Partly Cloudy,0,2012-12-19 11:53:00
3:53 AM,-29.0,-34.1,77,30.08,10.0,Calm,Calm,-,N/A,,Scattered Clouds,0,2012-12-19 12:53:00
4:53 AM,-31.0,-9999,N/A,30.12,10.0,Calm,Calm,-,N/A,,Partly Cloudy,0,2012-12-19 13:53:00
5:53 AM,-33.0,-9999,N/A,30.16,10.0,Calm,Calm,-,N/A,,Clear,0,2012-12-19 14:53:00
6:53 AM,-34.1,-9999,N/A,30.20,10.0,Calm,Calm,-,N/A,,Clear,0,2012-12-19 15:53:00
7:53 AM,-35.0,-9999,N/A,30.22,10.0,Calm,Calm,-,N/A,,Clear,0,2012-12-19 16:53:00
8:53 AM,-36.9,-9999,N/A,30.27,10.0,Calm,Calm,-,N/A,,Partly Cloudy,0,2012-12-19 17:53:00
9:53 AM,-36.0,-9999,N/A,30.29,10.0,Calm,Calm,-,N/A,,Partly Cloudy,0,2012-12-19 18:53:00
10:53 AM,-38.9,-9999,N/A,30.32,10.0,NNE,3.5,-,N/A,,Partly Cloudy,20,2012-12-19 19:53:00
11:53 AM,-40.0,-9999,N/A,30.36,10.0,Calm,Calm,-,N/A,,Partly Cloudy,0,2012-12-19 20:53:00
12:53 PM,-41.1,-9999,N/A,30.40,10.0,Variable,3.5,-,N/A,,Partly Cloudy,0,2012-12-19 21:53:00
1:53 PM,-41.1,-9999,N/A,30.42,10.0,NE,3.5,-,N/A,,Partly Cloudy,40,2012-12-19 22:53:00
2:53 PM,-41.1,-9999,N/A,30.45,10.0,Calm,Calm,-,N/A,,Partly Cloudy,0,2012-12-19 23:53:00
3:53 PM,-42.0,-9999,N/A,30.48,10.0,Calm,Calm,-,N/A,Fog,Patches of Fog,0,2012-12-20 00:53:00
4:53 PM,-43.1,-9999,N/A,30.50,10.0,Calm,Calm,-,N/A,Fog,Patches of Fog,0,2012-12-20 01:53:00
5:53 PM,-44.0,-9999,N/A,30.54,10.0,Calm,Calm,-,N/A,Fog,Patches of Fog,0,2012-12-20 02:53:00
6:53 PM,-45.0,-9999,N/A,30.56,10.0,Calm,Calm,-,N/A,Fog,Patches of Fog,0,2012-12-20 03:53:00
7:53 PM,-45.0,-9999,N/A,30.58,10.0,Calm,Calm,-,N/A,Fog,Patches of Fog,0,2012-12-20 04:53:00
8:53 PM,-45.0,-9999,N/A,30.60,10.0,Calm,Calm,-,N/A,Fog,Patches of Fog,0,2012-12-20 05:53:00
9:53 PM,-45.9,-9999,N/A,30.63,10.0,Calm,Calm,-,N/A,Fog,Patches of Fog,0,2012-12-20 06:53:00
10:53 PM,-45.0,-9999,N/A,30.65,10.0,Calm,Calm,-,N/A,Fog,Patches of Fog,0,2012-12-20 07:53:00
11:53 PM,-45.0,-9999,N/A,30.68,10.0,Calm,Calm,-,N/A,Fog,Patches of Fog,0,2012-12-20 08:53:00